Location: Unspecified
(0.0000°N, 0.0000°E)
Time: 15:05:07
(UTC+00:00)

ISS - Pass Details

Date: 10 August 2020
Orbit: 418 x 420 km, 51.6° (Epoch: 09 August)

Event Time Altitude Azimuth Distance (km) Brightness Sun altitude
Rises 19:24:19 0° 337° (NNW) 2,346 0.6 -19.0°
Reaches altitude 10° 19:26:30 10° 346° (NNW) 1,486 -0.6 -19.6°
Enters shadow 19:28:42 29° 19° (NNE) 785 -2.5 -20.1°
